FW1417 Weather Reports


Display with metric or nautical units.
time (UTC)temp
F
wind
direction
speed
MPH
gust
MPH
rain 1hr
in
rain 24hr
in
rain mn
in
humidity
%
barometer
mb
20260509004208 59 25 1.0 3.0 0.00 0.00 0.00 52 1008.5
20260509003708 59 40 1.0 3.0 0.00 0.00 0.00 53 1008.4
20260509003208 59 34 2.0 3.0 0.00 0.00 0.00 53 1008.3
20260509002708 59 44 2.0 3.0 0.00 0.00 0.00 52 1008.3
20260509002208 59 28 1.0 3.0 0.00 0.00 0.00 53 1008.4
20260509001708 59 45 2.0 3.0 0.00 0.00 0.00 53 1008.3
20260509001208 60 38 2.0 3.0 0.00 0.00 0.00 51 1008.4
20260509000708 60 4 1.0 5.0 0.00 0.00 0.00 50 1008.4
20260509000211 60 354 2.0 5.0 0.00 0.00 0.00 50 1008.4
20260508235708 60 351 1.0 5.0 0.00 0.00 0.00 50 1008.5
20260508235208 60 333 2.0 5.0 0.00 0.00 0.00 50 1008.4
20260508234707 60 355 2.0 3.0 0.00 0.00 0.00 49 1008.3
20260508234207 60 338 2.0 3.0 0.00 0.00 0.00 49 1008.3
20260508233708 60 11 1.0 3.0 0.00 0.00 0.00 49 1008.2
20260508233208 60 313 2.0 3.0 0.00 0.00 0.00 49 1008.1
20260508232708 61 33 2.0 3.0 0.00 0.00 0.00 48 1007.9
20260508232207 61 22 2.0 6.0 0.00 0.00 0.00 48 1007.9
20260508231209 62 292 2.0 5.0 0.00 0.00 0.00 47 1007.8
20260508230707 62 327 1.0 3.0 0.00 0.00 0.00 46 1007.9
20260508230208 62 334 2.0 6.0 0.00 0.00 0.00 47 1007.8
20260508225708 62 319 2.0 6.0 0.00 0.00 0.00 47 1007.8
20260508224208 62 290 1.0 7.0 0.00 0.00 0.00 46 1007.6
20260508223208 61 262 2.0 8.0 0.00 0.00 0.00 46 1007.8
20260508221708 62 321 3.0 8.0 0.00 0.00 0.00 45 1007.8
20260508220207 62 216 3.0 8.0 0.00 0.00 0.00 45 1007.8
20260508215708 62 348 3.0 8.0 0.00 0.00 0.00 46 1007.7
20260508215208 61 28 3.0 8.0 0.00 0.00 0.00 46 1007.7
20260508214707 61 0 3.0 10.0 0.00 0.00 0.00 48 1007.8
20260508214208 61 337 5.0 13.0 0.00 0.00 0.00 47 1007.8
20260508213709 61 9 3.0 15.0 0.00 0.00 0.00 48 1008.0
20260508213208 62 342 7.0 15.0 0.00 0.00 0.00 45 1008.0
20260508212707 61 355 2.0 12.0 0.00 0.00 0.00 43 1007.8
20260508211707 62 314 3.0 9.0 0.00 0.00 0.00 43 1008.0
20260508211208 62 298 3.0 12.0 0.00 0.00 0.00 42 1008.1
20260508210707 62 294 6.0 12.0 0.00 0.00 0.00 41 1008.1
20260508210208 62 286 3.0 9.0 0.00 0.00 0.00 41 1008.0
20260508204708 63 254 4.0 10.0 0.00 0.00 0.00 41 1008.1
20260508204207 63 284 5.0 10.0 0.00 0.00 0.00 40 1008.0
20260508203708 62 241 3.0 9.0 0.00 0.00 0.00 41 1008.1
20260508203208 62 251 1.0 9.0 0.00 0.00 0.00 41 1008.1
20260508202707 62 241 4.0 9.0 0.00 0.00 0.00 41 1008.0
20260508202207 62 332 3.0 9.0 0.00 0.00 0.00 42 1008.1
20260508201708 61 236 2.0 10.0 0.00 0.00 0.00 45 1008.0
20260508201207 61 348 4.0 14.0 0.00 0.00 0.00 46 1007.9
20260508200207 61 36 6.0 15.0 0.00 0.00 0.00 44 1007.9
20260508195708 62 317 6.0 15.0 0.00 0.00 0.00 44 1008.0
20260508195207 63 245 6.0 15.0 0.00 0.00 0.00 41 1007.9
20260508194708 63 281 3.0 15.0 0.00 0.00 0.00 38 1007.6
20260508194207 63 276 6.0 15.0 0.00 0.00 0.00 37 1007.7
20260508193707 63 323 5.0 15.0 0.00 0.00 0.00 36 1007.6
20260508193207 63 259 6.0 13.0 0.00 0.00 0.00 35 1007.6
20260508192707 64 170 6.0 13.0 0.00 0.00 0.00 34 1007.6
20260508192207 66 221 3.0 13.0 0.00 0.00 0.00 34 1007.6
20260508191207 64 255 5.0 13.0 0.00 0.00 0.00 35 1008.0
20260508190707 63 309 5.0 13.0 0.00 0.00 0.00 36 1008.0
20260508190207 63 204 5.0 18.0 0.00 0.00 0.00 36 1008.1
20260508185708 62 242 6.0 18.0 0.00 0.00 0.00 36 1008.1
20260508185208 62 285 5.0 13.0 0.00 0.00 0.00 36 1008.2
20260508184707 63 262 5.0 14.0 0.00 0.00 0.00 36 1008.1
20260508184208 63 263 6.0 14.0 0.00 0.00 0.00 35 1008.1
20260508183707 63 241 7.0 14.0 0.00 0.00 0.00 35 1008.0
20260508182208 63 242 6.0 17.0 0.00 0.00 0.00 34 1008.0
20260508181707 63 247 6.0 17.0 0.00 0.00 0.00 33 1008.2
20260508181207 64 257 6.0 17.0 0.00 0.00 0.00 33 1008.2
20260508180708 64 253 6.0 15.0 0.00 0.00 0.00 34 1008.3
20260508180207 64 141 7.0 20.0 0.00 0.00 0.00 34 1008.2
20260508175707 63 243 9.0 20.0 0.00 0.00 0.00 34 1008.5
20260508175208 63 254 5.0 18.0 0.00 0.00 0.00 34 1008.4
20260508174709 63 254 7.0 18.0 0.00 0.00 0.00 35 1008.4
20260508174209 63 245 7.0 24.0 0.00 0.00 0.00 34 1008.5
20260508173708 63 195 7.0 24.0 0.00 0.00 0.00 35 1008.5
20260508173208 64 238 10.0 20.0 0.00 0.00 0.00 34 1008.4
20260508172208 63 259 7.0 16.0 0.00 0.00 0.00 34 1008.3
20260508171707 63 187 7.0 16.0 0.00 0.00 0.00 34 1008.4
20260508171208 63 264 6.0 16.0 0.00 0.00 0.00 34 1008.6
20260508170707 63 211 7.0 16.0 0.00 0.00 0.00 34 1008.5
20260508165707 62 182 6.0 17.0 0.00 0.00 0.00 35 1008.6
20260508165207 62 123 7.0 17.0 0.00 0.00 0.00 35 1008.7
20260508164708 62 183 5.0 18.0 0.00 0.00 0.00 36 1008.6
20260508163207 62 247 6.0 18.0 0.00 0.00 0.00 35 1009.0
20260508162707 62 247 8.0 18.0 0.00 0.00 0.00 35 1009.0
20260508161709 60 236 3.0 20.0 0.00 0.00 0.00 38 1009.0
20260508161207 60 202 7.0 20.0 0.00 0.00 0.00 36 1009.2
20260508160707 61 207 4.0 16.0 0.00 0.00 0.00 35 1009.2
20260508155707 61 204 4.0 14.0 0.00 0.00 0.00 35 1009.2
20260508155208 61 202 6.0 14.0 0.00 0.00 0.00 36 1009.3
20260508153707 61 184 4.0 12.0 0.00 0.00 0.00 35 1009.3
20260508152707 62 244 7.0 13.0 0.00 0.00 0.00 35 1009.2
20260508152207 61 267 3.0 12.0 0.00 0.00 0.00 36 1009.3
20260508151709 61 167 3.0 12.0 0.00 0.00 0.00 36 1009.3
20260508151208 60 209 3.0 12.0 0.00 0.00 0.00 36 1009.2
20260508150207 59 234 2.0 3.0 0.00 0.00 0.00 37 1009.2
20260508145207 59 14 2.0 7.0 0.00 0.00 0.00 38 1009.3
20260508144707 59 254 3.0 7.0 0.00 0.00 0.00 38 1009.3
20260508144207 59 235 3.0 12.0 0.00 0.00 0.00 40 1009.4
20260508143707 58 305 3.0 12.0 0.00 0.00 0.00 39 1009.4
20260508143207 59 245 4.0 12.0 0.00 0.00 0.00 39 1009.4
20260508142708 59 313 5.0 12.0 0.00 0.00 0.00 38 1009.4
20260508142207 59 263 4.0 12.0 0.00 0.00 0.00 38 1009.6
20260508141707 58 260 3.0 9.0 0.00 0.00 0.00 41 1009.4
20260508141207 58 290 2.0 8.0 0.00 0.00 0.00 42 1009.5
20260508140707 58 191 3.0 7.0 0.00 0.00 0.00 44 1009.6
20260508140207 58 277 3.0 9.0 0.00 0.00 0.00 45 1009.6
20260508135707 57 236 4.0 9.0 0.00 0.00 0.00 48 1009.6
20260508135207 57 234 3.0 12.0 0.00 0.00 0.00 50 1009.8
20260508134707 57 255 5.0 12.0 0.00 0.00 0.00 49 1009.8
20260508134207 56 272 3.0 12.0 0.00 0.00 0.00 51 1009.7
20260508133707 56 296 6.0 12.0 0.00 0.00 0.00 50 1009.7
20260508133207 56 273 2.0 9.0 0.00 0.00 0.00 51 1009.8
20260508132207 55 244 3.0 10.0 0.00 0.00 0.00 52 1009.8
20260508131707 56 251 3.0 10.0 0.00 0.00 0.00 52 1009.8
20260508131207 56 232 3.0 9.0 0.00 0.00 0.00 54 1009.8
20260508130207 55 235 3.0 8.0 0.00 0.00 0.00 56 1009.7
20260508125707 54 257 2.0 8.0 0.00 0.00 0.00 56 1009.6
20260508124707 54 288 2.0 9.0 0.00 0.00 0.00 58 1009.6
20260508124207 53 260 5.0 9.0 0.00 0.00 0.00 58 1009.6
20260508123706 53 201 3.0 8.0 0.00 0.00 0.00 59 1009.5
20260508122707 53 299 2.0 10.0 0.00 0.00 0.00 62 1009.8
20260508122208 52 227 5.0 10.0 0.00 0.00 0.00 63 1009.9
20260508121207 52 221 2.0 9.0 0.00 0.00 0.00 65 1009.9
20260508120707 51 228 5.0 10.0 0.00 0.00 0.00 66 1009.9
20260508120207 51 254 5.0 10.0 0.00 0.00 0.00 66 1009.9
20260508115706 51 253 3.0 9.0 0.00 0.00 0.00 68 1009.9
20260508115206 50 260 2.0 8.0 0.00 0.00 0.00 69 1009.8
20260508114706 50 269 2.0 3.0 0.00 0.00 0.00 70 1009.8
20260508114207 50 254 2.0 7.0 0.00 0.00 0.00 71 1009.7
20260508113207 50 259 2.0 5.0 0.00 0.00 0.00 71 1009.6
20260508112708 49 256 2.0 8.0 0.00 0.00 0.00 71 1009.7
20260508111706 49 250 3.0 8.0 0.00 0.00 0.00 71 1009.6
20260508110707 49 272 3.0 8.0 0.00 0.00 0.00 71 1009.5
20260508110207 49 252 1.0 6.0 0.00 0.00 0.00 72 1009.5
20260508104707 48 254 1.0 3.0 0.00 0.00 0.00 73 1009.3
20260508104206 48 245 1.0 3.0 0.00 0.00 0.00 73 1009.2
20260508103207 48 267 0.0 3.0 0.00 0.00 0.00 73 1009.0
20260508102706 48 279 1.0 3.0 0.00 0.00 0.00 73 1009.0
20260508102206 48 275 1.0 3.0 0.00 0.00 0.00 73 1009.0
20260508101707 48 248 2.0 3.0 0.00 0.00 0.00 73 1008.9
20260508101207 48 237 0.0 2.0 0.00 0.00 0.00 73 1008.8
20260508100707 48 299 0.0 3.0 0.00 0.00 0.00 73 1008.8
20260508100206 48 298 1.0 7.0 0.00 0.00 0.00 73 1008.9
20260508095206 48 279 3.0 7.0 0.00 0.00 0.00 72 1008.8
20260508094707 49 277 2.0 7.0 0.00 0.00 0.00 72 1008.8
20260508094206 49 321 3.0 7.0 0.00 0.00 0.00 72 1008.7
20260508093707 49 311 2.0 7.0 0.00 0.00 0.00 72 1008.7
20260508093206 49 297 3.0 8.0 0.00 0.00 0.00 72 1008.5
20260508092706 49 307 2.0 8.0 0.00 0.00 0.00 72 1008.5
20260508092207 49 325 2.0 8.0 0.00 0.00 0.00 72 1008.5
20260508091707 49 286 3.0 7.0 0.00 0.00 0.00 71 1008.4
20260508091206 49 311 1.0 5.0 0.00 0.00 0.00 71 1008.3
20260508090707 49 0 2.0 3.0 0.00 0.00 0.00 71 1008.1
20260508090208 49 71 1.0 3.0 0.00 0.00 0.00 71 1007.9
20260508085706 49 5 2.0 6.0 0.00 0.00 0.00 71 1007.9
20260508085206 49 259 2.0 6.0 0.00 0.00 0.00 71 1008.2
20260508084707 49 301 2.0 5.0 0.00 0.00 0.00 71 1008.3
20260508084206 49 296 3.0 8.0 0.00 0.00 0.00 71 1008.3
20260508083707 49 321 2.0 8.0 0.00 0.01 0.00 71 1008.3
20260508083208 49 328 3.0 10.0 0.00 0.01 0.00 70 1008.3
20260508082707 49 314 2.0 10.0 0.00 0.01 0.00 70 1008.3
20260508082206 49 29 4.0 10.0 0.00 0.01 0.00 70 1008.2
20260508081708 49 311 3.0 12.0 0.00 0.01 0.00 70 1008.2
20260508081208 49 329 6.0 12.0 0.00 0.01 0.00 69 1008.3
20260508080707 49 63 5.0 12.0 0.00 0.01 0.00 69 1008.1
20260508080206 49 316 4.0 12.0 0.00 0.01 0.00 68 1008.2
20260508075706 49 334 5.0 12.0 0.00 0.02 0.00 67 1008.0
20260508075206 49 350 5.0 13.0 0.00 0.02 0.00 67 1007.9
20260508074707 50 344 6.0 13.0 0.00 0.02 0.00 66 1007.8
20260508074207 50 335 4.0 13.0 0.00 0.02 0.00 65 1007.7
20260508073706 50 351 5.0 12.0 0.00 0.02 0.00 65 1007.6
20260508072707 51 5 5.0 12.0 0.00 0.02 0.00 63 1007.7
20260508071206 51 320 4.0 10.0 0.00 0.04 0.00 59 1007.7
20260508070706 51 318 3.0 10.0 0.00 0.04 0.00 58 1007.6
20260508070206 51 33 6.0 13.0 0.00 0.04 0.00 58 1007.5
20260508065707 51 18 5.0 13.0 0.00 0.05 0.00 59 1007.7
20260508065207 52 28 6.0 14.0 0.00 0.05 0.00 59 1007.8
20260508064707 52 318 5.0 14.0 0.00 0.05 0.00 59 1007.9
20260508064206 52 294 5.0 12.0 0.00 0.06 0.00 58 1008.0
20260508063706 52 274 5.0 14.0 0.00 0.06 0.00 57 1008.1
20260508063207 52 15 5.0 16.0 0.00 0.06 0.00 59 1008.1
20260508062206 53 350 7.0 15.0 0.00 0.09 0.00 56 1008.0
20260508061706 54 331 7.0 13.0 0.00 0.10 0.00 56 1007.9
20260508061208 55 324 7.0 13.0 0.00 0.11 0.00 52 1007.7
20260508060706 56 5 7.0 13.0 0.00 0.11 0.00 50 1007.4
20260508060207 56 340 3.0 8.0 0.00 0.11 0.00 58 1007.2
20260508055706 56 260 0.0 3.0 0.00 0.12 0.00 62 1006.9
20260508055207 56 248 1.0 5.0 0.00 0.13 0.00 64 1006.8
20260508054707 56 187 2.0 5.0 0.00 0.13 0.00 64 1006.3
20260508054206 56 178 2.0 7.0 0.00 0.13 0.00 62 1006.0
20260508053706 56 141 1.0 7.0 0.00 0.13 0.00 60 1005.8
20260508053206 56 85 2.0 6.0 0.00 0.13 0.00 54 1005.8
20260508052706 56 123 2.0 3.0 0.00 0.13 0.00 49 1005.8
20260508052206 56 284 1.0 3.0 0.00 0.13 0.00 47 1005.8
20260508051706 56 12 1.0 5.0 0.00 0.13 0.00 47 1005.8
20260508051206 57 330 2.0 5.0 0.00 0.13 0.00 47 1005.7
20260508050706 57 327 2.0 5.0 0.00 0.13 0.00 50 1005.7
20260508045207 57 27 0.0 0.0 0.00 0.13 0.00 48 1005.8
20260508044706 57 27 0.0 3.0 0.00 0.13 0.00 47 1005.7
20260508044206 57 28 0.0 3.0 0.00 0.13 0.00 46 1005.7
20260508043706 57 22 2.0 3.0 0.00 0.13 0.00 47 1005.6
20260508043207 57 5 1.0 3.0 0.00 0.13 0.00 47 1005.6
20260508042207 57 95 0.0 2.0 0.00 0.13 0.00 48 1005.6
20260508041707 57 52 0.0 2.0 0.00 0.13 0.00 45 1005.7
20260508041207 57 9 0.0 2.0 0.00 0.13 0.00 39 1005.6
20260508040707 57 9 0.0 3.0 0.00 0.13 0.00 39 1005.4
20260508040207 57 0 1.0 3.0 0.00 0.13 0.00 40 1005.3
20260508035207 57 22 1.0 3.0 0.00 0.13 0.13 40 1005.6
20260508034707 57 26 0.0 2.0 0.00 0.13 0.13 40 1005.6
20260508034207 57 29 1.0 2.0 0.00 0.13 0.13 40 1005.8
20260508032706 57 40 0.0 2.0 0.00 0.13 0.13 39 1005.9
20260508032207 57 40 1.0 3.0 0.00 0.13 0.13 40 1005.9
20260508031707 58 40 1.0 3.0 0.00 0.13 0.13 42 1005.9
20260508031207 58 28 0.0 2.0 0.00 0.13 0.13 47 1005.8
20260508030706 58 29 0.0 2.0 0.00 0.13 0.13 49 1005.8
20260508030207 58 27 1.0 3.0 0.00 0.13 0.13 47 1005.9
20260508025207 58 40 2.0 7.0 0.00 0.13 0.13 42 1005.8
20260508024207 59 66 2.0 5.0 0.00 0.13 0.13 38 1005.8
20260508023706 59 19 3.0 7.0 0.00 0.13 0.13 38 1005.8
20260508023207 59 353 3.0 7.0 0.00 0.13 0.13 38 1005.8
20260508022708 59 11 2.0 6.0 0.00 0.13 0.13 39 1005.8
20260508021707 59 27 3.0 6.0 0.00 0.13 0.13 38 1005.7
20260508021207 59 333 3.0 5.0 0.00 0.13 0.13 37 1005.7
20260508020706 60 355 3.0 6.0 0.00 0.15 0.13 36 1005.6
20260508020208 60 5 2.0 6.0 0.00 0.18 0.13 36 1005.5
20260508015206 60 5 2.0 5.0 0.00 0.22 0.13 35 1005.5
20260508014707 60 336 2.0 5.0 0.00 0.31 0.13 35 1005.5
20260508013706 60 40 3.0 6.0 0.00 0.35 0.13 34 1005.5
20260508013208 60 5 2.0 6.0 0.00 0.37 0.13 34 1005.6
20260508012706 60 311 2.0 6.0 0.00 0.39 0.13 34 1005.7
20260508012206 60 0 3.0 6.0 0.00 0.39 0.13 34 1005.6
20260508011706 60 327 3.0 6.0 0.00 0.39 0.13 34 1005.6
20260508011207 60 296 1.0 5.0 0.00 0.39 0.13 34 1005.5
20260508010707 61 323 1.0 5.0 0.00 0.39 0.13 34 1005.5
20260508010207 61 5 1.0 5.0 0.00 0.39 0.13 33 1005.3
20260508005706 61 302 2.0 6.0 0.00 0.39 0.13 33 1005.4
20260508005206 61 338 2.0 6.0 0.00 0.39 0.13 33 1005.2
20260508004707 61 330 3.0 8.0 0.00 0.39 0.13 33 1005.3